Weather in Maltsevo

Russia / Kurgan Oblast     56°14′24″N   63°26′00″E
temp.,
°C
wind,
m/s
gust,
m/s
humid.,
%
clouds,
%
prec.,
mm/h
press.,
hPa
HPBL,
m
18 august, thu
thu1823:00+11nne24626 0.0 1022100
02:00+7n35800 0.0 102376
05:00+5n389233 0.0 1024153
08:00+10nne466434 0.0 1025451
11:00+13nne5545100 0.0 10251570
14:00+13nne554599 0.0 10251786
17:00+13n564799 0.0 10261577
20:00+11nne4756100 0.0 1027473
19 august, fri
fri1923:00+7nne478613 0.0 1028158
02:00+5nne33946 0.0 102944
05:00+5n229352 0.0 103034
08:00+10nnw3570100 0.0 1030312
11:00+15nnw4653100 0.0 10301264
14:00+18n574998 0.0 10281719
17:00+20nnw484591 0.0 10261325
20:00+16nnw355518 0.0 102568
20 august, sat
sat2023:00+13nw410665 0.0 1025162
02:00+13nw4107196 0.0 1024173
05:00+13nnw497611 0.0 1024180
08:00+17nnw487036 0.0 1024294
11:00+23nnw575578 0.1 10231035
14:00+24n6958100 0.5 10221488
17:00+16e3495100 4.5 1024182
20:00+15ne229684 0.2 102425
21 august, sun
sun2123:00+13ese119782 0.2 102513
02:00+15wsw229448 0.1 102532
05:00+13nnw2394100 0.1 102639
08:00+14nne479491 0.0 1027369
11:00+16ne467974 0.1 1028684
14:00+20ne45435 0.1 10271729
17:00+21nne5543100 0.1 10261834
20:00+15ene486595 0.0 1028185
22 august, mon
mon2223:00+11e227892 0.0 102917
02:00+11nne118087 0.0 102910
05:00+9n228851 0.0 102915
08:00+14nne23655 0.0 1030238
11:00+19ne34435 0.0 10301188
14:00+21ne34334 0.0 10301562
17:00+22ene34325 0.0 10291588
20:00+16ene3351100 0.0 103023